Volver al catálogo

TIANHUI 6B

ActivoCienciaSSO
NORAD 55839·PAYLOAD·🇨🇳 China

Lanzado Mar 9, 2023 desde Taiyuan Satellite Launch Center

Loading…

Próximos Pases (próximas 24 horas)

TLE

ActualizadoSource: Space-Track

Época: Sep 14, 2026, 14:44 UTC

1 55839U 23030D   26257.61429404 -.00000116  00000-0 -48007-4 0  9993
2 55839  99.0124 264.7476 0002615 144.9313 215.2025 14.01326683179910

Sigue TIANHUI 6B en tiempo real con AllMySat

Download on the App Store